Temperature
10 10 10 10 10 10 10 11 11 11 11 11 10 10 10 10 11 10 10 11 11 11 11 11 11 11 11 11 11 11 11 11 11 11 11 11 11 11
10 10 10 10 10 10 10 10 10 10 11 10 10 10 10 10 10 10 10 10 11 11 11 11 11 11 11 11 11 11 11 11 11 11 11 11 11 10
10 10 10 10 10 10 10 10 10 10 10 10 10 10 10 9 10 10 10 10 10 10 10 10 11 11 11 11 11 11 11 11 11 10 10 10 10 10
10 10 9 10 9 9 9 9 9 9 9 10 9 9 9 9 9 9 10 9 9 10 10 10 10 10 10 10 10 10 10 10 10 10 10 10 10 10
10 10 9 9 9 9 9 9 9 9 9 9 9 9 9 9 9 9 9 9 9 9 10 10 10 10 10 10 10 10 10 10 10 10 10 10 10 10
9 9 9 9 9 9 9 8 8 8 8 8 9 9 9 9 9 9 9 9 9 9 9 9 9 10 10 10 10 10 10 10 10 10 10 10 10 10
9 9 9 9 9 9 8 8 8 8 8 8 8 8 8 8 8 8 8 8 8 9 9 9 9 9 9 9 9 9 9 10 9 9 9 10 9 10
9 9 9 9 9 9 9 8 8 8 8 8 8 8 8 8 8 8 8 8 8 8 8 8 8 8 8 9 9 9 9 9 9 9 9 9 9 9
8 8 8 8 8 8 8 8 8 8 8 7 7 8 8 8 7 7 7 7 8 8 8 8 8 8 8 8 9 9 9 9 9 9 9 9 9 9
8 8 8 8 8 8 7 7 7 7 7 7 7 7 7 7 7 7 7 7 7 7 7 7 8 8 8 8 8 8 8 8 8 8 9 9 9 9
8 8 8 7 8 8 7 7 7 7 7 7 7 7 7 7 7 7 7 6 7 7 7 7 7 7 8 8 8 8 8 8 8 8 8 8 8 8
7 7 7 7 7 7 7 6 6 6 6 6 6 6 6 6 6 6 6 6 6 6 7 7 7 7 7 7 7 7 7 8 8 8 8 8 8 7
7 7 7 7 7 7 7 6 6 6 6 6 6 6 6 6 6 6 6 6 6 6 6 6 6 6 6 6 6 7 7 7 7 7 7 7 7 7
6 6 7 7 7 6 6 6 6 6 5 5 5 5 5 6 6 5 5 5 5 5 5 5 5 6 6 6 6 6 6 6 6 6 6 6 6 7
6 6 6 6 6 6 6 6 5 5 5 5 5 5 5 5 5 5 5 5 5 5 5 5 5 5 5 5 5 5 6 6 6 6 6 6 6 6
6 6 6 5 5 5 5 5 5 5 5 4 4 4 4 5 4 5 5 5 4 4 5 5 5 5 5 5 5 5 5 5 5 5 5 5 5 5
5 5 5 4 4 4 4 4 4 4 4 4 4 4 4 4 4 4 4 4 4 4 4 4 4 4 4 4 4 5 4 4 4 5 5 5 5 5
5 4 4 4 4 4 4 4 4 4 4 4 4 3 3 3 3 3 3 3 3 3 4 4 4 4 4 4 4 4 4 4 4 4 4 4 4 4
4 4 3 3 3 4 3 3 3 4 3 3 3 3 3 3 3 3 3 3 3 3 3 3 3 3 3 3 3 3 3 3 4 3 3 3 3 3
4 3 3 3 3 3 3 3 3 3 3 3 3 3 3 3 2 2 2 2 2 2 2 2 3 3 3 3 3 3 3 3 3 3 3 3 3 3
3 3 3 3 3 2 3 3 3 3 3 2 2 2 2 2 2 2 2 2 2 2 2 2 2 2 2 2 2 2 2 3 3 2 2 2 2 3
3 3 2 2 2 2 2 2 2 2 2 2 2 2 2 2 2 1 2 2 1 1 1 1 2 2 2 2 2 2 2 2 2 2 2 2 2 2
2 2 2 2 2 2 2 2 2 2 2 2 1 1 1 1 1 1 1 1 1 1 1 1 1 1 1 1 1 1 1 1 1 1 2 2 2 2
Wind_Speed
2 2 2 1 2 2 2 3 4 4 4 3 2 2 2 2 2 3 2 1 0 1 1 1 1 1 0 0 1 1 2 2 2 2 3 4 4 4
2 2 1 2 1 2 2 3 4 4 4 3 3 3 3 3 3 3 2 2 3 1 1 2 1 1 1 1 1 1 2 2 2 3 2 3 4 4
2 2 2 2 2 2 2 2 3 3 4 4 3 3 4 4 3 3 3 3 2 3 2 2 2 2 2 1 2 2 2 1 2 2 2 3 4 4
2 2 2 2 2 2 2 2 3 3 4 5 4 4 4 4 4 4 4 3 3 3 3 3 3 3 3 2 2 2 2 2 2 2 2 3 4 4
2 2 2 3 3 2 3 3 2 3 3 4 4 3 4 3 4 4 4 3 3 3 4 5 4 4 4 4 3 3 2 2 2 3 4 4 4 4
2 2 3 3 3 3 3 3 3 3 3 4 4 3 3 3 3 3 3 2 3 3 3 4 5 6 6 5 4 3 3 3 2 3 4 4 4 5
3 3 2 2 4 3 3 3 3 3 3 3 3 3 3 3 3 3 3 3 3 2 3 3 4 4 5 6 6 5 4 4 3 3 3 4 5 6
3 3 2 2 2 3 3 4 4 4 4 4 4 5 5 4 3 4 3 3 3 2 4 4 3 3 3 4 3 5 5 4 3 3 3 4 4 5
3 3 2 2 3 4 4 5 5 5 5 6 6 5 5 4 4 5 4 5 4 2 3 4 3 4 3 2 4 5 5 5 4 4 3 3 3 3
3 3 3 3 2 3 3 4 4 4 5 6 6 5 4 4 4 5 5 5 4 2 3 4 4 4 3 3 4 4 4 5 4 4 3 3 3 4
3 3 3 3 1 3 4 4 4 4 3 5 5 4 3 3 3 3 3 3 3 3 3 3 3 3 3 3 3 4 5 5 4 3 2 2 3 4
3 3 2 3 1 2 4 4 5 4 4 4 4 4 4 4 5 5 4 4 3 3 2 3 3 2 2 2 1 2 3 4 4 4 3 2 2 3
3 3 2 1 2 2 4 4 4 5 5 4 4 3 2 2 3 4 4 4 4 4 1 2 3 3 3 2 2 2 2 2 3 3 4 4 3 3
4 4 2 2 3 3 3 3 4 4 3 3 3 3 2 3 3 3 4 4 4 4 3 3 3 3 3 3 2 2 2 2 2 2 2 3 3 3
3 2 2 2 4 4 3 3 3 3 3 3 3 3 3 3 3 2 3 3 4 4 4 4 4 3 3 3 3 2 2 2 1 1 1 2 2 2
4 2 3 4 4 3 3 3 3 2 3 3 3 3 3 2 2 2 2 2 2 2 2 4 4 3 3 4 3 2 2 2 2 2 1 1 2 2
3 3 2 2 2 2 2 2 2 2 3 3 3 3 3 2 2 2 2 2 2 2 1 1 2 2 3 3 3 2 2 2 2 2 1 1 2 2
4 3 3 3 3 3 3 3 2 2 3 3 3 3 3 2 2 2 2 2 2 2 1 1 1 1 1 1 2 3 2 2 2 2 2 2 2 2
4 4 4 4 4 4 3 3 3 3 3 3 3 3 3 2 2 2 2 2 2 2 2 1 1 1 2 2 1 1 3 3 2 2 2 3 3 3
4 4 4 3 4 4 3 3 3 3 3 3 3 3 3 3 3 2 2 2 2 2 2 2 2 2 3 3 3 3 3 2 2 3 3 3 3 3
4 3 3 3 4 3 3 3 3 3 3 3 3 3 3 3 3 3 3 2 2 2 2 2 2 2 2 2 2 2 2 3 3 3 3 3 4 3
4 4 4 4 4 4 3 3 3 3 3 3 3 3 3 3 4 4 3 3 2 3 3 2 1 1 2 2 2 2 2 2 2 3 3 4 3 3
4 4 4 4 4 3 3 4 4 3 3 3 3 3 3 3 3 3 3 3 3 3 2 2 1 1 1 1 2 2 2 2 2 2 2 4 4 5
Wind_Direction
276 271 272 280 267 271 270 262 273 275 276 269 266 274 276 287 289 270 266 125 197 300 331 338 331 343 353 312 298 281 267 250 252 258 246 222 206 200
263 270 284 278 279 270 269 274 274 274 274 277 277 278 283 273 278 278 273 199 204 224 270 286 265 231 252 254 280 274 272 244 260 260 220 196 189 198
237 252 261 283 270 268 274 275 274 270 265 273 275 274 269 271 280 278 262 252 211 181 229 248 240 226 232 245 260 267 263 236 250 251 203 194 194 194
260 254 256 250 263 266 271 274 280 275 266 272 269 274 275 277 279 275 267 258 248 174 210 232 232 230 232 240 248 262 246 222 234 248 236 228 221 218
265 263 267 259 258 259 261 266 274 273 266 263 269 276 274 278 280 272 266 265 251 207 211 217 224 228 231 228 226 240 237 221 229 246 251 246 242 239
256 263 268 269 270 267 258 261 264 265 265 263 264 266 269 271 270 275 277 272 263 245 237 238 227 224 222 219 214 221 230 228 243 256 254 246 250 244
254 256 268 303 318 294 280 269 264 263 264 267 266 267 262 259 262 264 269 276 264 259 266 247 234 231 219 211 211 221 226 229 242 258 257 252 257 239
254 256 248 243 259 259 278 285 278 268 268 263 263 260 262 257 263 262 259 263 263 255 263 260 247 249 245 238 209 216 221 226 237 248 257 257 260 233
258 256 262 273 260 249 234 233 242 250 266 268 266 266 267 264 261 260 258 259 265 268 263 260 255 256 253 231 187 209 218 221 230 246 246 245 252 234
252 258 258 264 271 275 258 254 261 255 254 259 268 270 270 263 253 256 263 266 263 250 246 257 259 264 264 236 182 206 217 220 222 231 239 241 246 239
248 256 260 259 321 287 265 265 270 273 247 260 286 297 305 267 254 248 250 248 257 253 242 261 265 271 263 240 202 200 212 214 215 217 224 232 243 244
246 245 254 279 320 273 266 271 275 281 284 269 251 243 250 228 218 231 235 243 256 259 250 264 262 260 258 236 231 218 215 208 202 197 197 208 241 250
246 250 244 217 255 261 275 275 289 293 283 279 270 261 255 251 234 233 238 247 253 260 274 251 261 254 254 259 247 239 246 238 219 212 197 191 210 250
251 255 250 186 221 252 267 299 306 287 282 279 274 272 268 264 261 249 245 246 259 270 271 255 258 263 262 265 268 260 272 268 254 241 232 198 207 218
253 287 292 229 227 232 247 271 275 277 278 274 269 272 274 275 271 264 259 259 261 270 267 251 260 267 268 267 271 274 279 281 262 264 261 249 245 232
244 222 213 217 222 247 249 245 254 270 269 267 272 271 270 261 252 254 258 257 260 272 267 257 256 259 264 271 261 263 270 274 279 281 273 276 272 252
254 244 240 237 231 232 241 249 257 254 252 259 267 266 261 254 250 252 252 249 255 269 284 282 266 256 279 281 260 256 266 278 282 283 279 266 270 265
231 233 236 239 245 242 240 244 251 260 263 260 254 252 251 254 251 251 247 244 249 260 261 279 265 250 252 324 309 263 270 280 283 279 267 270 274 282
228 236 242 247 251 251 248 250 256 262 261 252 251 249 249 246 242 246 240 244 251 254 255 259 258 250 243 272 306 287 282 286 285 277 271 277 282 287
234 242 246 249 254 256 254 253 255 259 256 248 242 242 244 237 233 240 245 254 258 258 259 264 269 270 266 272 292 314 318 300 291 281 276 280 285 286
237 245 249 250 254 257 259 259 256 255 254 248 242 239 234 229 231 234 234 234 246 249 251 264 285 296 281 272 280 299 331 344 326 300 294 286 281 275
240 242 247 252 254 256 255 254 252 249 243 245 246 241 233 228 229 231 234 228 227 236 248 268 293 278 265 249 262 287 309 332 345 348 345 319 297 281
243 243 246 249 250 252 251 246 247 246 240 241 244 240 232 229 232 233 228 225 223 227 235 245 255 262 255 235 248 275 295 313 316 329 340 340 309 290
Height
1530 1530 1530 1530 1529 1529 1529 1530 1531 1529 1528 1528 1527 1526 1525 1525 1524 1523 1523 1522 1522 1522 1521 1521 1521 1521 1522 1522 1522 1521 1521 1521 1520 1519 1519 1519 1520 1522
1528 1528 1528 1528 1527 1527 1527 1527 1527 1528 1526 1526 1525 1524 1523 1522 1521 1521 1520 1519 1519 1519 1519 1519 1519 1519 1519 1519 1519 1519 1519 1519 1518 1517 1516 1516 1518 1519
1527 1527 1526 1526 1525 1525 1525 1525 1525 1525 1524 1523 1522 1521 1520 1520 1518 1518 1517 1517 1516 1516 1516 1516 1516 1517 1517 1517 1517 1517 1517 1516 1516 1515 1515 1515 1516 1517
1525 1525 1524 1524 1523 1523 1523 1523 1522 1522 1522 1520 1519 1519 1518 1517 1515 1515 1514 1514 1513 1512 1513 1513 1513 1514 1514 1514 1514 1514 1514 1514 1514 1513 1513 1513 1513 1514
1523 1523 1522 1522 1521 1521 1520 1520 1519 1519 1518 1517 1516 1515 1514 1513 1512 1512 1511 1511 1510 1510 1510 1510 1510 1511 1511 1511 1512 1512 1512 1511 1511 1511 1511 1511 1510 1510
1520 1520 1520 1519 1519 1518 1518 1517 1517 1516 1515 1514 1513 1512 1511 1510 1509 1509 1509 1508 1508 1507 1507 1507 1507 1507 1508 1508 1508 1509 1509 1509 1508 1508 1508 1508 1507 1506
1518 1517 1517 1516 1515 1515 1515 1514 1514 1513 1512 1511 1510 1509 1508 1507 1507 1506 1506 1506 1505 1504 1504 1504 1505 1505 1505 1505 1505 1505 1506 1506 1506 1505 1505 1505 1504 1503
1515 1515 1514 1513 1512 1511 1511 1511 1510 1510 1509 1508 1507 1506 1505 1505 1504 1504 1503 1503 1503 1502 1502 1502 1502 1502 1502 1502 1502 1502 1502 1502 1503 1503 1502 1502 1501 1499
1512 1512 1511 1510 1509 1509 1508 1507 1506 1505 1505 1505 1504 1503 1502 1502 1501 1500 1500 1500 1500 1499 1499 1499 1499 1499 1499 1498 1499 1499 1499 1499 1500 1500 1500 1499 1498 1497
1509 1508 1508 1507 1506 1505 1505 1504 1503 1503 1501 1501 1500 1500 1499 1498 1498 1498 1497 1497 1497 1497 1497 1497 1497 1496 1496 1496 1495 1495 1496 1496 1497 1497 1497 1496 1496 1496
1505 1505 1504 1504 1503 1502 1502 1501 1500 1499 1498 1497 1496 1496 1495 1495 1495 1495 1494 1494 1494 1494 1494 1494 1494 1494 1493 1493 1493 1493 1493 1493 1493 1494 1494 1494 1494 1494
1502 1501 1500 1500 1499 1498 1498 1498 1497 1496 1495 1494 1493 1492 1492 1491 1491 1492 1492 1492 1492 1492 1492 1491 1491 1491 1491 1491 1490 1490 1490 1490 1490 1491 1491 1491 1491 1492
1498 1497 1497 1496 1495 1495 1494 1494 1493 1493 1492 1491 1490 1489 1489 1489 1488 1488 1488 1489 1489 1489 1489 1489 1488 1489 1489 1488 1488 1488 1488 1488 1488 1488 1488 1489 1489 1489
1494 1494 1493 1492 1492 1491 1491 1490 1490 1489 1488 1487 1487 1486 1486 1486 1486 1485 1485 1485 1486 1486 1486 1486 1486 1486 1486 1486 1485 1485 1485 1485 1486 1485 1486 1486 1487 1487
1490 1489 1489 1488 1488 1488 1487 1487 1486 1485 1485 1484 1484 1484 1484 1483 1483 1483 1482 1482 1482 1482 1483 1483 1483 1483 1483 1483 1483 1482 1482 1482 1483 1483 1483 1483 1484 1484
1486 1485 1485 1484 1484 1484 1484 1483 1483 1482 1482 1481 1481 1481 1481 1480 1480 1480 1480 1479 1479 1479 1479 1479 1480 1480 1480 1480 1480 1480 1480 1480 1480 1480 1481 1481 1481 1481
1482 1482 1481 1481 1481 1480 1480 1480 1479 1479 1479 1478 1478 1478 1477 1477 1477 1477 1477 1477 1477 1477 1477 1477 1477 1477 1477 1477 1477 1478 1478 1478 1478 1477 1477 1477 1478 1478
1478 1478 1478 1477 1477 1477 1477 1476 1476 1476 1475 1475 1475 1474 1474 1474 1474 1474 1474 1474 1474 1474 1474 1474 1474 1474 1475 1475 1476 1475 1475 1475 1475 1475 1475 1475 1475 1475
1474 1474 1474 1474 1473 1473 1473 1473 1472 1472 1472 1472 1471 1471 1471 1471 1471 1472 1471 1472 1472 1472 1472 1472 1472 1472 1472 1472 1473 1473 1473 1472 1472 1472 1472 1472 1472 1472
1469 1469 1470 1470 1470 1470 1469 1469 1469 1469 1468 1468 1468 1468 1468 1468 1469 1469 1469 1469 1470 1470 1470 1470 1470 1470 1470 1470 1470 1470 1470 1470 1469 1469 1469 1469 1468 1469
1466 1466 1466 1466 1466 1466 1466 1465 1465 1465 1465 1465 1465 1465 1465 1466 1466 1466 1467 1467 1467 1468 1468 1468 1467 1468 1468 1468 1468 1468 1468 1468 1468 1467 1467 1466 1465 1465
1462 1462 1462 1462 1462 1462 1462 1462 1462 1462 1462 1462 1462 1462 1463 1463 1463 1464 1464 1464 1465 1465 1465 1465 1465 1465 1465 1465 1465 1465 1465 1465 1465 1465 1464 1464 1463 1462
1458 1458 1458 1458 1458 1458 1458 1458 1458 1458 1458 1459 1459 1459 1460 1460 1460 1461 1461 1462 1462 1462 1463 1463 1463 1463 1463 1463 1463 1463 1463 1463 1462 1462 1462 1461 1461 1460